Birmingham, United Kingdom

10:10 AM BST on August 31, 2016 (GMT +0100)
Birmingham

Weather History for EGBB - January, 2013

Change the Weather History Date:

Thursday, January 10, 2013

  Actual Average Record
Temperature  
Mean Temperature 34 °F -  
Max Temperature 37 °F 43 °F 57 °F (2015)
Min Temperature 32 °F 33 °F 23 °F (2009)
Degree Days  
Heating Degree Days 30    
Moisture  
Dew Point 34 °F    
Average Humidity 99    
Maximum Humidity 100    
Minimum Humidity 93    
Precipitation  
Precipitation 0.00 in 0.07 in - ()
Sea Level Pressure  
Sea Level Pressure 29.98 in    
Wind  
Wind Speed 2 mph ()    
Max Wind Speed 7 mph    
Max Gust Speed -    
Visibility 1.4 miles    
Events Fog , Snow    
Averages and records for this station are not official NWS values.
T = Trace of Precipitation, MM = Missing Value Source: Averaged Metar Reports

Daily Weather History Graph

Daily Weather History Graph

Search for Another Location

Airport or City:

Trip Planner

Search our weather history database for the weather conditions in past years. The results will help you decide how hot, cold, wet, or windy it might be!

Date:

Astronomy

Jan. 10, 2013 Rise Set
Actual Time 8:13 AM GMT 4:15 PM GMT
Civil Twilight 7:33 AM GMT 4:55 PM GMT
Nautical Twilight 6:50 AM GMT 5:39 PM GMT
Astronomical Twilight 6:09 AM GMT 6:20 PM GMT
Moon 6:39 AM GMT (1/10) 3:07 PM GMT (1/10)
Length of Visible Light 9h 22m
Length of Day
8h 01m
Waning Crescent, 3% of the Moon is Illuminated
Jan 10
Waning Crescent
Jan 11
New
Jan 18
First Quarter
Jan 27
Full
Feb 3
Last Quarter

Hourly Weather History & Observations

Time (GMT) Temp. Windchill Dew Point Humidity Pressure Visibility Wind Dir Wind Speed Gust Speed Precip Events Conditions
12:20 AM 33.8 °F - 33.8 °F 100% 30.06 in 0.2 mi NW 2.3 mph - N/A Fog Fog
12:50 AM 33.8 °F 30.8 °F 33.8 °F 100% 30.06 in 0.2 mi Variable 3.5 mph - N/A   Unknown
1:20 AM 32.0 °F - 32.0 °F 100% 30.04 in 0.1 mi Variable 2.3 mph - N/A Fog Fog
1:50 AM 33.8 °F - 33.8 °F 100% 30.04 in 0.1 mi Variable 2.3 mph - N/A Fog Fog
2:20 AM 33.8 °F - 33.8 °F 100% 30.04 in 0.1 mi Calm Calm - N/A Fog Fog
2:50 AM 33.8 °F 30.8 °F 33.8 °F 100% 30.04 in 0.1 mi West 3.5 mph - N/A Snow Snow Grains
3:20 AM 32.0 °F - 32.0 °F 100% 30.04 in 0.1 mi Variable 2.3 mph - N/A Fog Fog
3:50 AM 32.0 °F 28.7 °F 32.0 °F 100% 30.04 in 0.2 mi Variable 3.5 mph - N/A Fog Fog
4:20 AM 32.0 °F 27.5 °F 32.0 °F 100% 30.01 in 0.3 mi SW 4.6 mph - N/A Fog Fog
4:50 AM 32.0 °F - 32.0 °F 100% 30.01 in 0.7 mi Calm Calm - N/A   Overcast
5:20 AM 32.0 °F - 32.0 °F 100% 30.01 in 1.3 mi Calm Calm - N/A   Overcast
5:50 AM 32.0 °F - 32.0 °F 100% 30.01 in 0.9 mi Variable 2.3 mph - N/A   Overcast
6:20 AM 33.8 °F 30.8 °F 33.8 °F 100% 30.01 in 1.1 mi NW 3.5 mph - N/A   Overcast
6:50 AM 33.8 °F 30.8 °F 33.8 °F 100% 30.01 in 1.9 mi Variable 3.5 mph - N/A   Overcast
7:20 AM 33.8 °F 30.8 °F 33.8 °F 100% 29.98 in 1.9 mi Variable 3.5 mph - N/A   Overcast
7:50 AM 33.8 °F - 33.8 °F 100% 30.01 in 1.6 mi Calm Calm - N/A   Overcast
8:20 AM 33.8 °F - 33.8 °F 100% 29.98 in 1.6 mi NW 2.3 mph - N/A   Overcast
8:50 AM 33.8 °F - 33.8 °F 100% 29.98 in 1.6 mi NW 2.3 mph - N/A   Overcast
9:20 AM 33.8 °F - 33.8 °F 100% 29.98 in 1.6 mi Variable 2.3 mph - N/A   Overcast
9:50 AM 33.8 °F - 33.8 °F 100% 29.98 in 1.6 mi Variable 2.3 mph - N/A   Overcast
10:20 AM 33.8 °F - 33.8 °F 100% 29.98 in 1.6 mi Variable 2.3 mph - N/A   Overcast
10:50 AM 35.6 °F 32.8 °F 35.6 °F 100% 29.98 in 1.4 mi Variable 3.5 mph - N/A   Overcast
11:20 AM 35.6 °F 32.8 °F 35.6 °F 100% 29.98 in 1.6 mi Variable 3.5 mph - N/A   Overcast
11:50 AM 33.8 °F 30.8 °F 33.8 °F 100% 29.98 in 1.6 mi SW 3.5 mph - N/A   Overcast
12:20 PM 35.6 °F - 35.6 °F 100% 29.95 in 1.6 mi Calm Calm - N/A   Overcast
12:50 PM 35.6 °F - 35.6 °F 100% 29.95 in 2.2 mi Variable 2.3 mph - N/A   Overcast
1:20 PM 35.6 °F - 35.6 °F 100% 29.95 in 2.8 mi Calm Calm - N/A   Overcast
1:50 PM 35.6 °F - 35.6 °F 100% 29.95 in 2.2 mi Variable 2.3 mph - N/A   Overcast
2:20 PM 37.4 °F - 35.6 °F 93% 29.92 in - Variable 2.3 mph - N/A   Mostly Cloudy
2:50 PM 37.4 °F - 35.6 °F 93% 29.92 in - Calm Calm - N/A   Mostly Cloudy
3:20 PM 37.4 °F 34.9 °F 35.6 °F 93% 29.92 in 2.5 mi Variable 3.5 mph - N/A   Haze
3:50 PM 37.4 °F - 35.6 °F 93% 29.92 in 2.5 mi NNW 2.3 mph - N/A   Haze
4:20 PM 35.6 °F 31.7 °F 35.6 °F 100% 29.92 in 2.2 mi North 4.6 mph - N/A   Mostly Cloudy
4:50 PM 35.6 °F 31.7 °F 33.8 °F 93% 29.92 in - North 4.6 mph - N/A   Mostly Cloudy
5:20 PM 33.8 °F 30.8 °F 33.8 °F 100% 29.95 in - North 3.5 mph - N/A   Mostly Cloudy
5:50 PM 33.8 °F 30.8 °F 33.8 °F 100% 29.95 in - Variable 3.5 mph - N/A   Mostly Cloudy
6:20 PM 33.8 °F - 33.8 °F 100% 29.95 in - NNW 2.3 mph - N/A   Mostly Cloudy
6:50 PM 33.8 °F - 33.8 °F 100% 29.95 in - NW 2.3 mph - N/A   Mostly Cloudy
7:20 PM 33.8 °F 29.6 °F 33.8 °F 100% 29.95 in 1.8 mi NW 4.6 mph - N/A   Mostly Cloudy
7:50 PM 33.8 °F 27.7 °F 33.8 °F 100% 29.95 in 1.7 mi NW 6.9 mph - N/A   Scattered Clouds
8:20 PM 33.8 °F 29.6 °F 33.8 °F 100% 29.95 in 1.7 mi NW 4.6 mph - N/A   Mostly Cloudy
8:50 PM 32.0 °F 28.7 °F 32.0 °F 100% 29.98 in 1.9 mi NW 3.5 mph - N/A   Scattered Clouds
9:20 PM 32.0 °F 28.7 °F 32.0 °F 100% 29.98 in 1.6 mi NW 3.5 mph - N/A   Mist
9:50 PM 32.0 °F 28.7 °F 32.0 °F 100% 29.98 in 1.4 mi North 3.5 mph - N/A   Mist
10:20 PM 32.0 °F - 32.0 °F 100% 29.98 in 1.7 mi NNW 2.3 mph - N/A   Mist
10:50 PM 32.0 °F 27.5 °F 32.0 °F 100% 30.01 in 1.8 mi NW 4.6 mph - N/A   Mist
11:20 PM 33.8 °F 30.8 °F 32.0 °F 93% 30.01 in 1.9 mi NW 3.5 mph - N/A   Mist
11:50 PM 33.8 °F - 33.8 °F 100% 30.01 in 1.8 mi Calm Calm - N/A   Scattered Clouds